Rock Springs, WY

6:34 AM MDT on May 28, 2017 (GMT -0600)
Rock Springs-Sweetwater

Weather History for KRKS - January, 2014

Change the Weather History Date:

Thursday, January 23, 2014

  Actual Average Record
Temperature  
Mean Temperature 20 °F 21 °F  
Max Temperature 29 °F 30 °F 53 °F (1970)
Min Temperature 11 °F 12 °F -21 °F (1962)
Degree Days  
Heating Degree Days 45 44  
Month to date heating degree days 872 1007  
Since 1 July heating degree days 4078 4359  
Cooling Degree Days 0 0  
Month to date cooling degree days 0 0  
Year to date cooling degree days 0 0  
Moisture  
Dew Point 10 °F    
Average Humidity 62    
Maximum Humidity 84    
Minimum Humidity 39    
Precipitation  
Precipitation 0.00 in 0.02 in 0.17 in (1978)
Month to date precipitation 0.05 0.33  
Year to date precipitation 0.05 0.33  
Sea Level Pressure  
Sea Level Pressure 30.47 in    
Wind  
Wind Speed 8 mph (NE)    
Max Wind Speed 25 mph    
Max Gust Speed 31 mph    
Visibility 10 miles    
Events      
T = Trace of Precipitation, MM = Missing Value Source: NWS Daily Summary

Daily Weather History Graph

Daily Weather History Graph

Search for Another Location

Airport or City:

Trip Planner

Search our weather history database for the weather conditions in past years. The results will help you decide how hot, cold, wet, or windy it might be!

Date:

Astronomy

Jan. 23, 2014 Rise Set
Actual Time 7:35 AM MST 5:20 PM MST
Civil Twilight 7:05 AM MST 5:50 PM MST
Nautical Twilight 6:32 AM MST 6:24 PM MST
Astronomical Twilight 5:59 AM MST 6:57 PM MST
Moon 12:01 AM MST (1/23) 11:06 AM MST (1/23)
Length of Visible Light 10h 45m
Length of Day
9h 45m
Waning Gibbous, 54% of the Moon is Illuminated
Jan 23
Waning Gibbous
Jan 23
Last Quarter
Jan 30
New
Feb 6
First Quarter
Feb 14
Full

Hourly Weather History & Observations

Time (MST) Temp. Windchill Dew Point Humidity Pressure Visibility Wind Dir Wind Speed Gust Speed Precip Events Conditions
12:12 AM 21.9 °F 6.2 °F 18.0 °F 85% 30.15 in 10.0 mi ENE 21.9 mph - N/A   Overcast
12:54 AM 21.0 °F 7.6 °F 17.1 °F 85% 30.25 in 10.0 mi NE 15.0 mph - N/A   Overcast
1:27 AM 21.0 °F 7.6 °F 15.1 °F 78% 30.19 in 10.0 mi NE 15.0 mph - N/A   Overcast
1:54 AM 21.0 °F 9.9 °F 15.1 °F 78% 30.28 in 10.0 mi NE 10.4 mph - N/A   Overcast
2:40 AM 21.0 °F 7.6 °F 15.1 °F 78% 30.23 in 10.0 mi NE 15.0 mph 23.0 mph N/A   Overcast
2:54 AM 21.0 °F 5.7 °F 16.0 °F 81% 30.32 in 9.0 mi NE 19.6 mph - N/A   Overcast
3:26 AM 19.0 °F 5.0 °F 12.9 °F 77% 30.25 in 10.0 mi NE 15.0 mph 24.2 mph N/A   Mostly Cloudy
3:54 AM 18.0 °F 6.9 °F 10.9 °F 74% 30.35 in 10.0 mi NE 9.2 mph - N/A   Clear
4:54 AM 17.1 °F 3.6 °F 10.0 °F 74% 30.39 in 10.0 mi NE 12.7 mph 23.0 mph N/A   Clear
5:54 AM 16.0 °F 1.1 °F 9.0 °F 74% 30.46 in 10.0 mi ENE 15.0 mph - N/A   Clear
6:54 AM 14.0 °F -0.2 °F 9.0 °F 80% 30.49 in 10.0 mi East 12.7 mph - N/A   Clear
7:54 AM 12.9 °F 0.7 °F 8.1 °F 81% 30.54 in 10.0 mi ESE 9.2 mph - N/A   Clear
8:54 AM 16.0 °F 8.8 °F 9.0 °F 74% 30.56 in 10.0 mi East 4.6 mph - N/A   Clear
9:54 AM 19.0 °F 10.0 °F 10.0 °F 68% 30.56 in 10.0 mi East 6.9 mph - N/A   Clear
10:54 AM 21.9 °F - 10.0 °F 60% 30.57 in 10.0 mi Calm Calm - N/A   Clear
11:54 AM 24.1 °F 17.0 °F 7.0 °F 48% 30.56 in 10.0 mi East 5.8 mph - N/A   Clear
12:54 PM 26.1 °F 20.5 °F 7.0 °F 44% 30.55 in 10.0 mi East 4.6 mph - N/A   Clear
1:54 PM 28.0 °F 21.7 °F 7.0 °F 41% 30.53 in 10.0 mi North 5.8 mph - N/A   Clear
2:54 PM 28.0 °F 24.2 °F 8.1 °F 43% 30.52 in 10.0 mi Variable 3.5 mph - N/A   Clear
3:54 PM 27.0 °F 23.0 °F 8.1 °F 45% 30.53 in 10.0 mi Variable 3.5 mph - N/A   Clear
4:54 PM 27.0 °F 19.5 °F 9.0 °F 47% 30.54 in 10.0 mi WNW 6.9 mph - N/A   Clear
5:54 PM 21.0 °F 12.4 °F 10.0 °F 63% 30.57 in 10.0 mi NW 6.9 mph - N/A   Clear
6:54 PM 21.0 °F 14.6 °F 9.0 °F 60% 30.59 in 10.0 mi West 4.6 mph - N/A   Clear
7:54 PM 19.0 °F 11.1 °F 9.0 °F 65% 30.63 in 10.0 mi SW 5.8 mph - N/A   Clear
8:54 PM 16.0 °F 5.3 °F 7.0 °F 68% 30.64 in 10.0 mi West 8.1 mph - N/A   Clear
9:54 PM 15.1 °F 3.3 °F 7.0 °F 70% 30.63 in 10.0 mi SW 9.2 mph - N/A   Clear
10:54 PM 17.1 °F 4.3 °F 7.0 °F 65% 30.60 in 10.0 mi SW 11.5 mph - N/A   Clear
11:54 PM 15.1 °F 2.5 °F 6.1 °F 68% 30.61 in 10.0 mi West 10.4 mph - N/A   Clear